SCP
0 0 0 0 0 0 0 0 0 0 0 0 0 0 0 0 0 0 0 0 0 0 0 0 0 0 0 0 0 0 0 0 0 0 0 0 0 0 0 0 0 0 0
0 0 0 0 0 0 0 0 0 0 0 0 0 0 0 0 0 0 0 0 0 0 0 0 0 0 0 0 0 0 0 0 0 0 0 0 0 0 0 0 0 0 0
0 0 0 0 0 0 0 0 0 0 0 0 0 0 0 0 0 0 0 0 0 0 0 0 0 0 0 0 0 0 0 0 0 0 0 0 0 0 0 0 0 0 0
0 0 0 0 0 0 0 0 0 0 0 0 0 0 0 0 0 0 0 0 0 0 0 0 0 0 0 0 0 0 0 0 0 0 0 0 0 0 0 0 0 0 0
0 0 0 0 0 0 0 0 0 0 0 0 0 0 0 0 0 0 0 0 0 0 0 0 0 0 0 0 0 0 0 0 0 0 0 0 0 0 0 0 0 0 0
0 0 0 0 0 0 0 0 0 0 0 0 0 0 0 0 0 0 0 0 0 0 0 0 0 0 0 0 0 0 0 0 0 0 0 0 0 0 0 0 0 0 0
0 0 0 0 0 0 0 0 0 0 0 0 0 0 0 0 0 0 0 0 0 0 0 0 0 0 0 0 0 0 0 0 0 0 0 0 0 0 0 0 0 0 0
0 0 0 0 0 0 0 0 0 0 0 0 0 0 0 0 0 0 0 0 0 0 0 0 0 0 0 0 0 0 0 0 0 0 0 0 0 0 0 0 0 0 0
0 0 0 0 0 0 0 0 0 0 0 0 0 0 0 0 0 0 0 0 0 0 0 0 0 0 0 0 0 0 0 0 0 0 0 0 0 0 0 0 0 0 0
0 0 0 0 0 0 0 0 0 0 0 0 0 0 0 0 0 0 0 0 0 0 0 0 0 0 0 0 0 0 0 0 0 0 0 0 0 0 0 0 0 0 0
0 0 0 0 0 0 0 0 0 0 0 0 0 0 0 0 0 0 0 0 0 0 0 0 0 0 0 0 0 0 0 0 0 0 0 0 0 0 0 0 0 0 0
0 0 0 0 0 0 0 0 0 0 0 0 0 0 0 0 0 0 0 0 0 0 0 0 0 0 0 0 0 0 0 0 0 0 0 0 0 0 0 0 0 0 0
0 0 0 0 0 0 0 0 0 0 0 0 0 0 0 0 0 0 0 0 0 0 0 0 0 0 0 0 0 0 0 0 0 0 0 0 0 0 0 0 0 0 0
0 0 0 0 0 0 0 0 0 0 0 0 0 0 0 0 0 0 0 0 0 0 0 0 0 0 0 0 0 0 0 0 0 0 0 0 0 0 0 0 0 0 0
0 0 0 0 0 0 0 0 0 0 0 0 0 0 0 0 0 0 0 0 0 0 0 0 0 0 0 0 0 0 0 0 0 0 0 0 0 0 0 0 0 0 0
0 0 0 0 0 0 0 0 0 0 0 0 0 0 0 0 0 0 0 0 0 0 0 0 0 0 0 0 0 0 0 0 0 0 0 0 0 0 0 0 0 0 0
0 0 0 0 0 0 0 0 0 0 0 0 0 0 0 0 0 0 0 0 0 0 0 0 0 0 0 0 0 0 0 0 0 0 0 0 0 0 0 0 0 0 0
0 0 0 0 0 0 0 0 0 0 0 0 0 0 0 0 0 0 0 0 0 0 0 0 0 0 0 0 0 0 0 0 0 0 0 0 0 0 0 0 0 0 0
0 0 0 0 0 0 0 0 0 0 0 0 0 0 0 0 0 0 0 0 0 0 0 0 0 0 0 0 0 0 0 0 0 0 0 0 0 0 0 0 0 0 0
0 0 0 0 0 0 0 0 0 0 0 0 0 0 0 0 0 0 0 0 0 0 0 0 0 0 0 0 0 0 0 0 0 0 0 0 0 0 0 0 0 0 0
0 0 0 0 0 0 0 0 0 0 0 0 0 0 0 0 0 0 0 0 0 0 0 0 0 0 0 0 0 0 0 0 0 0 0 0 0 0 0 0 0 0 0
0 0 0 0 0 0 0 0 0 0 0 0 0 0 0 0 0 0 0 0 0 0 0 0 0 0 0 0 0 0 0 0 0 0 0 0 0 0 0 0 0 0 0
0 0 0 0 0 0 0 0 0 0 0 0 0 0 0 0 0 0 0 0 0 0 0 0 0 0 0 0 0 0 0 0 0 0 0 0 0 0 0 0 0 0 0
0 0 0 0 0 0 0 0 0 0 0 0 0 0 0 0 0 0 0 0 0 0 0 0 0 0 0 0 0 0 0 0 0 0 0 0 0 0 0 0 0 0 0
0 0 0 0 0 0 0 0 0 0 0 0 0 0 0 0 0 0 0 0 0 0 0 0 0 0 0 0 0 0 0 0 0 0 0 0 0 0 0 0 0 0 0
0 0 0 0 0 0 0 0 0 0 0 0 0 0 0 0 0 0 0 0 0 0 0 0 0 0 0 0 0 0 0 0 0 0 0 0 0 0 0 0 0 0 1
Wind_Speed
6 9 11 11 12 10 9 10 9 7 5 2 1 2 3 4 3 7 9 4 3 4 5 5 5 5 4 5 5 6 6 7 6 6 6 6 6 7 2 1 4 5 1
6 10 12 11 11 8 7 9 9 7 5 3 2 3 1 1 4 5 4 4 4 4 6 8 8 7 7 3 4 4 2 2 3 5 7 6 5 5 1 2 5 6 4
7 10 12 10 10 9 9 10 8 5 4 3 4 4 3 3 0 0 1 4 5 5 6 8 9 10 9 7 3 1 3 5 4 5 8 8 5 2 4 6 7 8 5
8 9 10 10 10 11 11 9 7 5 4 4 5 5 4 5 4 3 1 3 4 5 5 6 8 8 10 9 4 2 2 3 3 5 8 7 6 4 6 7 8 9 4
8 8 8 9 11 12 11 10 7 5 5 5 6 7 5 6 5 5 2 3 3 3 4 4 5 7 8 9 8 7 3 3 2 6 7 7 7 5 6 9 8 12 9
7 8 9 8 10 10 10 10 8 5 4 5 6 7 7 7 5 5 5 4 2 1 4 5 5 6 7 8 9 9 7 3 3 7 6 7 7 8 8 11 10 11 11
7 7 9 8 9 10 9 8 7 6 5 5 5 7 8 9 7 5 6 5 1 2 4 6 7 7 7 8 9 9 9 5 5 9 6 7 8 9 11 13 14 12 12
6 6 7 7 7 9 10 10 10 9 7 5 4 7 9 9 5 6 2 4 2 3 5 7 8 10 8 8 8 8 8 7 6 8 8 7 9 11 14 16 16 15 14
6 7 7 7 8 7 7 7 8 9 6 5 4 4 4 6 8 7 2 1 3 5 5 9 10 11 10 10 9 8 7 6 9 8 9 8 8 11 15 17 18 18 18
6 7 7 6 7 8 8 7 6 6 6 4 3 2 2 2 2 3 4 3 6 8 8 9 11 12 12 12 11 9 7 7 11 9 8 9 10 14 17 18 20 20 21
7 8 8 7 6 7 6 6 7 7 6 5 5 4 3 5 4 4 4 4 7 9 10 11 11 13 12 11 11 8 7 8 9 8 8 10 14 18 20 21 21 22 22
10 10 9 9 8 7 6 6 7 6 7 6 5 4 3 4 3 5 6 5 9 10 11 12 13 13 11 9 7 8 7 9 8 9 10 12 17 21 22 23 24 24 24
9 9 10 10 9 8 6 5 4 4 5 5 6 5 3 3 3 4 4 5 6 6 7 8 9 8 8 8 9 9 10 10 8 9 11 14 20 23 24 24 25 26 26
8 8 8 10 9 9 8 6 5 5 5 4 5 5 4 3 3 4 4 5 5 5 6 7 7 9 10 11 12 13 13 11 10 9 11 16 21 24 25 25 26 27 27
5 6 7 9 10 9 8 7 6 5 5 4 3 4 4 3 4 5 5 6 6 6 7 7 8 9 10 11 12 13 14 15 15 12 10 13 18 24 26 27 27 27 28
2 3 5 8 10 10 9 7 5 4 4 3 3 3 4 4 4 5 6 6 6 6 7 7 9 9 9 10 12 13 14 14 14 14 12 12 15 21 26 28 28 28 29
4 5 5 5 8 9 8 7 4 2 2 2 2 3 4 4 5 5 5 6 6 7 8 8 9 9 9 10 11 12 12 14 14 14 13 11 11 16 24 27 28 29 30
5 6 7 2 4 7 6 5 2 1 0 1 2 2 3 4 5 5 5 5 7 6 6 7 8 8 9 10 10 11 11 12 15 14 13 12 10 10 13 21 25 27 28
6 7 8 6 6 6 6 4 5 4 4 4 4 5 6 6 6 4 4 6 6 5 6 7 7 8 9 9 9 11 11 11 13 12 13 13 12 11 10 10 15 21 25
7 8 10 9 9 9 8 7 7 8 8 8 8 9 10 9 9 7 6 8 8 7 8 9 10 10 10 10 10 11 11 12 12 11 11 11 10 11 11 11 10 11 18
11 12 12 12 10 8 7 7 8 9 8 9 9 11 10 10 10 9 7 8 8 8 9 10 10 11 11 11 11 12 12 12 12 9 8 11 12 12 13 13 10 9 9
12 13 14 13 13 10 8 8 8 8 8 8 8 9 10 11 10 9 9 7 7 7 8 10 11 10 10 11 12 14 12 13 12 12 13 12 13 12 13 12 13 13 13
12 12 13 14 13 11 10 8 7 8 7 7 7 7 9 10 10 9 8 8 8 7 8 9 10 10 10 10 11 11 13 13 13 14 14 12 13 12 12 14 16 16 15
11 11 13 13 12 11 9 7 9 7 7 7 6 6 7 8 9 9 9 8 8 7 8 8 9 9 10 9 10 10 12 14 15 16 11 14 14 14 15 13 15 17 17
9 10 11 12 12 11 10 9 9 8 7 5 5 6 6 6 7 8 8 7 8 7 8 9 9 9 8 9 9 10 11 11 14 16 15 13 13 13 14 14 14 13 15
9 9 10 11 11 10 11 10 10 9 7 6 6 6 5 5 5 8 9 8 8 8 8 9 9 9 9 9 9 10 10 11 11 13 15 15 15 14 14 13 14 12 11
Wind_Direction
164 155 171 174 160 169 165 146 138 138 140 122 119 170 116 125 134 41 35 32 42 12 358 356 331 345 31 82 92 89 85 81 42 12 358 343 333 314 263 355 309 272 17
129 155 166 169 159 169 156 144 141 147 151 165 197 210 209 14 18 20 9 14 51 15 13 16 350 24 28 67 100 87 54 66 55 351 338 297 277 303 330 304 317 316 278
136 151 161 165 162 161 144 139 144 158 175 206 235 231 230 235 137 342 77 59 33 13 22 8 350 358 357 7 355 354 33 352 358 340 311 279 257 236 278 279 287 309 273
139 153 161 154 155 153 150 149 158 182 199 228 254 287 273 237 192 179 182 69 42 26 16 8 334 341 343 346 345 327 13 314 318 320 287 284 274 212 252 265 273 281 286
143 153 137 140 153 157 164 162 167 191 209 238 263 292 308 268 233 176 165 119 76 27 344 350 336 321 323 332 334 325 313 276 256 276 291 300 292 256 250 266 262 267 270
147 156 134 155 161 162 161 160 172 189 219 247 267 281 291 292 251 173 148 136 116 2 330 327 328 318 311 312 314 309 308 311 257 281 295 296 287 282 264 264 261 257 265
152 156 148 168 170 167 165 164 176 198 215 241 264 273 296 294 266 230 168 163 140 307 312 310 303 298 300 301 300 297 296 294 261 285 285 285 283 279 272 267 267 252 259
153 161 166 173 194 183 185 186 183 202 213 228 253 281 321 345 309 275 192 168 221 271 301 310 295 290 285 286 288 292 296 299 279 277 283 283 289 287 276 271 269 264 252
158 170 178 184 194 203 205 199 196 206 205 223 245 278 326 19 31 17 78 241 270 279 293 307 310 307 305 298 298 298 294 285 283 273 274 277 268 273 277 272 265 269 261
170 184 191 200 205 209 204 202 216 213 196 207 234 284 348 328 352 348 315 313 311 302 298 295 299 301 304 304 296 287 286 272 262 264 267 266 266 267 270 270 268 263 266
191 196 202 210 218 227 228 190 210 210 197 203 213 204 239 258 269 286 299 299 284 284 285 284 284 285 295 289 265 253 260 262 266 266 262 258 256 258 263 263 263 264 261
203 197 202 213 218 226 231 221 220 204 206 209 215 229 253 279 298 311 296 272 270 269 272 270 274 279 278 275 261 231 247 264 266 263 259 253 253 255 257 258 257 258 259
216 205 203 209 217 222 228 229 220 209 208 211 219 229 246 269 275 274 281 272 273 263 273 275 273 271 280 284 283 277 271 268 263 259 255 246 248 252 256 257 257 256 255
218 224 216 213 214 220 223 223 222 213 207 213 215 222 232 252 272 288 297 301 302 301 300 297 293 290 286 280 277 277 273 266 259 256 252 235 236 246 251 253 254 254 254
233 235 230 222 217 215 218 220 221 223 216 222 231 241 253 272 294 302 302 308 309 305 301 299 296 293 289 285 280 275 272 269 267 261 258 240 228 238 248 250 250 251 251
283 272 259 237 224 213 210 214 215 226 235 237 254 270 282 292 302 309 303 299 304 304 304 303 304 302 295 291 288 283 280 278 274 271 267 259 235 233 242 248 248 247 248
358 350 324 273 232 214 205 207 213 219 247 265 294 303 295 292 295 296 300 311 320 324 320 316 312 307 300 297 294 294 291 287 282 278 271 264 253 233 233 242 249 248 245
10 17 16 11 196 195 190 181 173 135 70 51 22 345 343 342 334 320 323 333 337 332 329 326 324 318 313 310 308 304 298 292 286 281 276 272 266 259 238 234 241 250 254
27 33 46 63 105 132 140 131 105 90 77 67 55 43 42 38 27 16 14 6 355 352 349 342 329 322 313 309 305 300 298 293 289 284 279 277 274 269 266 256 237 239 247
60 65 72 75 90 107 113 110 96 85 73 66 61 58 56 51 44 38 31 17 4 359 355 346 333 328 320 320 316 305 299 294 290 286 288 288 285 280 274 271 266 252 239
73 70 68 70 77 93 99 99 95 91 83 74 63 56 51 44 38 30 18 11 2 355 351 343 337 331 327 330 321 316 305 296 297 303 323 308 294 289 281 277 283 283 271
75 74 74 69 67 70 76 79 87 87 80 73 65 53 45 40 33 26 15 5 358 348 347 345 344 336 332 334 329 328 319 315 319 335 310 300 299 288 286 288 281 287 293
74 71 74 75 74 77 88 97 101 94 80 67 54 47 40 37 31 22 14 2 359 354 351 348 347 339 333 332 338 327 329 322 321 312 307 302 315 311 307 310 307 300 292
81 78 77 77 75 70 72 79 79 73 68 53 45 39 38 33 27 17 11 5 2 358 356 350 349 342 337 335 337 332 323 319 319 316 318 318 309 315 309 305 304 303 296
91 85 83 81 75 72 71 71 75 75 71 55 38 33 28 28 25 17 8 7 7 4 358 350 346 344 342 338 334 329 323 321 322 314 310 312 307 305 305 299 294 293 296
103 95 90 87 81 75 74 72 72 71 65 53 35 24 17 18 19 19 7 10 8 1 353 345 342 339 339 336 329 323 321 319 314 307 304 305 303 303 302 302 298 289 292